TimeMST,TemperatureF,Dew PointF,Humidity,Sea Level PressureIn,VisibilityMPH,Wind Direction,Wind SpeedMPH,Gust SpeedMPH,PrecipitationIn,Events,Conditions,WindDirDegrees,DateUTC
12:56 AM,-0.9,-6.0,79,30.15,-9999.0,Calm,Calm,-,N/A,,Unknown,0,2012-12-30 07:56:00
1:56 AM,1.0,-2.9,83,30.16,-9999.0,Calm,Calm,-,N/A,,Unknown,0,2012-12-30 08:56:00
2:56 AM,1.9,-2.0,83,30.14,-9999.0,Calm,Calm,-,N/A,,Unknown,0,2012-12-30 09:56:00
3:56 AM,3.0,-0.0,87,30.16,-9999.0,Calm,Calm,-,N/A,,Unknown,0,2012-12-30 10:56:00
4:56 AM,3.9,-0.0,84,30.17,-9999.0,Calm,Calm,-,N/A,,Unknown,0,2012-12-30 11:56:00
5:56 AM,5.0,1.0,84,30.20,-9999.0,Calm,Calm,-,N/A,,Unknown,0,2012-12-30 12:56:00
6:56 AM,5.0,1.9,87,30.22,-9999.0,Calm,Calm,-,N/A,,Unknown,0,2012-12-30 13:56:00
7:56 AM,6.1,1.9,83,30.21,-9999.0,Calm,Calm,-,N/A,,Unknown,0,2012-12-30 14:56:00
8:56 AM,7.0,3.9,87,30.22,-9999.0,Calm,Calm,-,N/A,,Unknown,0,2012-12-30 15:56:00
9:56 AM,10.9,7.0,84,30.22,-9999.0,Calm,Calm,-,N/A,,Unknown,0,2012-12-30 16:56:00
10:56 AM,12.0,8.1,84,30.22,-9999.0,Calm,Calm,-,N/A,,Unknown,0,2012-12-30 17:56:00
11:56 AM,15.1,9.0,77,30.20,-9999.0,Calm,Calm,-,N/A,,Unknown,0,2012-12-30 18:56:00
12:56 PM,16.0,8.1,71,30.17,-9999.0,Calm,Calm,-,N/A,,Unknown,0,2012-12-30 19:56:00
1:56 PM,17.1,9.0,71,30.14,-9999.0,Variable,5.8,-,0.01,,Unknown,0,2012-12-30 20:56:00
2:56 PM,16.0,8.1,71,30.16,-9999.0,Variable,3.5,-,N/A,,Unknown,0,2012-12-30 21:56:00
3:56 PM,15.1,8.1,74,30.17,-9999.0,Calm,Calm,-,N/A,,Unknown,0,2012-12-30 22:56:00
4:56 PM,10.9,6.1,81,30.18,-9999.0,Calm,Calm,-,N/A,,Unknown,0,2012-12-30 23:56:00
5:56 PM,5.0,1.0,84,30.22,-9999.0,NW,3.5,-,N/A,,Unknown,310,2012-12-31 00:56:00
6:56 PM,3.0,-0.9,84,30.25,-9999.0,Calm,Calm,-,N/A,,Unknown,0,2012-12-31 01:56:00
7:56 PM,-2.0,-6.0,83,30.27,-9999.0,Calm,Calm,-,N/A,,Unknown,0,2012-12-31 02:56:00
8:56 PM,-2.0,-7.1,79,30.26,-9999.0,Calm,Calm,-,N/A,,Unknown,0,2012-12-31 03:56:00
9:56 PM,-2.0,-7.1,79,30.23,-9999.0,Calm,Calm,-,N/A,,Unknown,0,2012-12-31 04:56:00
10:56 PM,-4.0,-9.0,79,30.25,-9999.0,Calm,Calm,-,N/A,,Unknown,0,2012-12-31 05:56:00
11:56 PM,-4.0,-8.0,83,30.22,-9999.0,Calm,Calm,-,N/A,,Unknown,0,2012-12-31 06:56:00